Johnstown, PA

12:40 AM EDT on October 20, 2017 (GMT -0400)
Johnstown-Cambria County

Weather History for KJST - May, 2014

Change the Weather History Date:

Tuesday, May 20, 2014

  Actual Average Record
Temperature  
Mean Temperature 55 °F 58 °F  
Max Temperature 67 °F 67 °F 95 °F (1911)
Min Temperature 43 °F 48 °F 28 °F (2002)
Degree Days  
Heating Degree Days 10 8  
Month to date heating degree days 210 203  
Since 1 July heating degree days 7168 6534  
Cooling Degree Days 0 1  
Month to date cooling degree days 15 7  
Year to date cooling degree days 19 12  
Growing Degree Days 6 (Base 50)    
Moisture  
Dew Point 37 °F    
Average Humidity 51    
Maximum Humidity 70    
Minimum Humidity 31    
Precipitation  
Precipitation T in 0.17 in 1.85 in (1969)
Month to date precipitation 2.82 2.73  
Year to date precipitation 12.60 14.84  
Sea Level Pressure  
Sea Level Pressure 30.13 in    
Wind  
Wind Speed 5 mph (SSW)    
Max Wind Speed 15 mph    
Max Gust Speed 19 mph    
Visibility 10 miles    
Events      
T = Trace of Precipitation, MM = Missing Value Source: NWS Daily Summary

Daily Weather History Graph

Daily Weather History Graph

Search for Another Location

Airport or City:

Trip Planner

Search our weather history database for the weather conditions in past years. The results will help you decide how hot, cold, wet, or windy it might be!

Date:

Astronomy

May. 20, 2014 Rise Set
Actual Time 5:54 AM EDT 8:29 PM EDT
Civil Twilight 5:23 AM EDT 9:00 PM EDT
Nautical Twilight 4:44 AM EDT 9:39 PM EDT
Astronomical Twilight 4:00 AM EDT 10:23 PM EDT
Moon 12:57 AM EDT 12:00 PM EDT
Length of Visible Light 15h 37m
Length of Day
14h 34m
Waning Gibbous, 60% of the Moon is Illuminated
May 20
Waning Gibbous
May 21
Last Quarter
May 28
New
Jun 5
First Quarter
Jun 13
Full

Hourly Weather History & Observations

Time (EDT) Temp. Windchill Dew Point Humidity Pressure Visibility Wind Dir Wind Speed Gust Speed Precip Events Conditions
12:54 AM 54.0 °F - 30.9 °F 41% 30.21 in 10.0 mi WSW 4.6 mph - N/A   Clear
2:54 AM 45.0 °F 41.2 °F 36.0 °F 71% 30.22 in 10.0 mi West 6.9 mph - N/A   Clear
3:54 AM 50.0 °F - 32.0 °F 50% 30.22 in 10.0 mi WSW 4.6 mph - N/A   Clear
4:54 AM 48.0 °F - 34.0 °F 58% 30.22 in 10.0 mi Calm Calm - N/A   Clear
5:54 AM 46.9 °F - 35.1 °F 63% 30.23 in 10.0 mi SW 6.9 mph - N/A   Clear
6:54 AM 48.0 °F - 35.1 °F 61% 30.22 in 10.0 mi SW 4.6 mph - N/A   Clear
7:54 AM 50.0 °F - 37.9 °F 63% 30.22 in 10.0 mi WSW 3.5 mph - N/A   Clear
8:54 AM 54.0 °F - 37.0 °F 53% 30.22 in 10.0 mi SSW 5.8 mph - N/A   Scattered Clouds
9:54 AM 57.0 °F - 37.0 °F 47% 30.22 in 10.0 mi SSW 5.8 mph - N/A   Partly Cloudy
10:54 AM 60.1 °F - 36.0 °F 41% 30.17 in 10.0 mi SSE 4.6 mph - N/A   Overcast
11:54 AM 62.1 °F - 39.0 °F 43% 30.17 in 10.0 mi Variable 6.9 mph - N/A   Overcast
12:54 PM 64.9 °F - 36.0 °F 34% 30.14 in 10.0 mi Variable 5.8 mph - N/A   Mostly Cloudy
1:54 PM 64.0 °F - 35.1 °F 34% 30.12 in 10.0 mi WSW 8.1 mph - N/A   Overcast
2:54 PM 64.9 °F - 35.1 °F 33% 30.11 in 10.0 mi South 4.6 mph - N/A   Overcast
3:54 PM 64.9 °F - 33.1 °F 31% 30.08 in 10.0 mi South 6.9 mph - N/A   Overcast
4:54 PM 63.0 °F - 35.1 °F 35% 30.06 in 10.0 mi South 6.9 mph - N/A   Overcast
5:54 PM 66.9 °F - 37.0 °F 33% 30.05 in 10.0 mi South 5.8 mph - N/A   Mostly Cloudy
6:54 PM 64.0 °F - 37.9 °F 38% 30.04 in 10.0 mi SE 5.8 mph - N/A   Overcast
7:54 PM 63.0 °F - 37.9 °F 40% 30.04 in 10.0 mi SE 6.9 mph - N/A   Overcast
8:54 PM 61.0 °F - 39.0 °F 44% 30.04 in 10.0 mi South 3.5 mph - 0.00 in   Overcast
9:54 PM 61.0 °F - 39.9 °F 46% 30.03 in 10.0 mi South 8.1 mph - 0.00 in   Overcast
10:54 PM 60.1 °F - 44.1 °F 55% 30.02 in 10.0 mi South 5.8 mph - N/A   Scattered Clouds
11:54 PM 59.0 °F - 46.0 °F 62% 30.00 in 10.0 mi South 8.1 mph - N/A   Clear